TimeCST,TemperatureF,Dew PointF,Humidity,Sea Level PressureIn,VisibilityMPH,Wind Direction,Wind SpeedMPH,Gust SpeedMPH,PrecipitationIn,Events,Conditions,WindDirDegrees,DateUTC
12:53 AM,45.0,43.0,93,30.17,8.0,North,4.6,-,N/A,,Clear,360,2012-11-21 06:53:00
1:53 AM,44.1,42.1,93,30.17,5.0,NNW,8.1,-,N/A,,Clear,340,2012-11-21 07:53:00
2:53 AM,45.0,43.0,93,30.19,5.0,North,9.2,-,N/A,,Clear,360,2012-11-21 08:53:00
3:53 AM,45.0,42.1,90,30.20,5.0,North,9.2,-,N/A,,Clear,360,2012-11-21 09:53:00
4:53 AM,41.0,39.9,96,30.21,3.0,North,5.8,-,N/A,,Clear,10,2012-11-21 10:53:00
5:22 AM,41.0,37.4,87,30.22,2.5,North,9.2,-,N/A,,Clear,360,2012-11-21 11:22:00
5:31 AM,42.8,39.2,87,30.23,3.0,North,8.1,-,N/A,,Clear,360,2012-11-21 11:31:00
5:53 AM,42.1,41.0,96,30.23,3.0,North,6.9,-,N/A,,Clear,360,2012-11-21 11:53:00
6:03 AM,41.0,39.2,93,30.23,2.5,North,5.8,-,N/A,,Clear,350,2012-11-21 12:03:00
6:22 AM,41.0,39.2,93,30.24,1.5,North,4.6,-,N/A,,Clear,350,2012-11-21 12:22:00
6:49 AM,39.2,37.4,93,30.25,0.8,NNW,4.6,-,N/A,,Clear,340,2012-11-21 12:49:00
6:53 AM,41.0,39.0,93,30.25,0.8,NNW,3.5,-,N/A,,Clear,330,2012-11-21 12:53:00
7:17 AM,42.8,39.2,87,30.26,1.0,NNW,5.8,-,N/A,,Clear,330,2012-11-21 13:17:00
7:48 AM,46.4,44.6,93,30.27,2.0,North,4.6,-,N/A,,Clear,350,2012-11-21 13:48:00
7:53 AM,46.9,45.0,93,30.27,2.5,North,5.8,-,N/A,,Clear,360,2012-11-21 13:53:00
8:12 AM,48.2,46.4,93,30.27,3.0,NNE,8.1,-,N/A,,Clear,20,2012-11-21 14:12:00
8:53 AM,53.1,48.0,83,30.27,4.0,NNE,6.9,-,N/A,,Haze,30,2012-11-21 14:53:00
9:53 AM,57.0,48.9,74,30.29,6.0,NE,4.6,-,N/A,,Haze,50,2012-11-21 15:53:00
10:53 AM,62.1,48.0,60,30.28,9.0,Variable,4.6,-,N/A,,Clear,0,2012-11-21 16:53:00
11:53 AM,64.0,46.0,52,30.26,10.0,NE,5.8,-,N/A,,Clear,40,2012-11-21 17:53:00
12:53 PM,66.0,46.9,50,30.25,10.0,North,4.6,-,N/A,,Clear,360,2012-11-21 18:53:00
1:53 PM,66.0,46.0,48,30.22,10.0,Variable,3.5,-,N/A,,Clear,0,2012-11-21 19:53:00
2:53 PM,66.0,46.0,48,30.21,9.0,Calm,Calm,-,N/A,,Clear,0,2012-11-21 20:53:00
3:53 PM,64.0,46.9,54,30.21,10.0,North,5.8,-,N/A,,Clear,350,2012-11-21 21:53:00
4:53 PM,55.9,48.0,75,30.21,9.0,NNE,3.5,-,N/A,,Clear,30,2012-11-21 22:53:00
5:53 PM,51.1,46.0,83,30.22,9.0,NNW,4.6,-,N/A,,Clear,340,2012-11-21 23:53:00
6:53 PM,53.1,46.9,80,30.22,8.0,Calm,Calm,-,N/A,,Clear,0,2012-11-22 00:53:00
7:53 PM,50.0,46.0,86,30.22,5.0,Calm,Calm,-,N/A,,Clear,0,2012-11-22 01:53:00
8:53 PM,48.0,45.0,89,30.21,6.0,SE,4.6,-,N/A,,Clear,130,2012-11-22 02:53:00
9:53 PM,46.9,44.1,90,30.22,5.0,Calm,Calm,-,N/A,,Clear,0,2012-11-22 03:53:00
10:53 PM,46.0,43.0,89,30.22,5.0,Calm,Calm,-,N/A,,Clear,0,2012-11-22 04:53:00
11:53 PM,45.0,42.1,90,30.20,4.0,Calm,Calm,-,N/A,,Clear,0,2012-11-22 05:53:00